| time (UTC) | temp F | wind direction | speed MPH | gust MPH | rain 1hr in | rain 24hr in | rain mn in | humidity % | barometer mb |
| 20260903211529 | 87 | 124 | 5.0 | 10.0 | 0.00 | 0.00 | 0.00 | 77 | 1015.7 |
| 20260903210026 | 87 | 133 | 4.0 | 10.0 | 0.00 | 0.00 | 0.00 | 75 | 1015.6 |
| 20260903204522 | 87 | 145 | 5.0 | 9.0 | 0.00 | 0.00 | 0.00 | 76 | 1015.7 |
| 20260903203019 | 88 | 153 | 4.0 | 11.0 | 0.00 | 0.00 | 0.00 | 75 | 1015.8 |
| 20260903201524 | 88 | 185 | 2.0 | 8.0 | 0.00 | 0.00 | 0.00 | 74 | 1016.1 |
| 20260903200015 | 88 | 162 | 4.0 | 12.0 | 0.00 | 0.00 | 0.00 | 72 | 1016.1 |
| 20260903194526 | 89 | 146 | 6.0 | 10.0 | 0.00 | 0.00 | 0.00 | 70 | 1016.1 |
| 20260903193012 | 89 | 149 | 3.0 | 9.0 | 0.00 | 0.00 | 0.00 | 68 | 1016.5 |
| 20260903191513 | 89 | 69 | 2.0 | 9.0 | 0.00 | 0.00 | 0.00 | 71 | 1016.6 |
| 20260903190007 | 89 | 198 | 4.0 | 10.0 | 0.00 | 0.00 | 0.00 | 70 | 1016.7 |
| 20260903184509 | 90 | 86 | 6.0 | 10.0 | 0.00 | 0.00 | 0.00 | 68 | 1016.8 |
| 20260903183005 | 89 | 141 | 4.0 | 13.0 | 0.00 | 0.00 | 0.00 | 68 | 1017.0 |
| 20260903181504 | 89 | 229 | 2.0 | 10.0 | 0.00 | 0.00 | 0.00 | 69 | 1017.1 |
| 20260903180003 | 90 | 164 | 3.0 | 9.0 | 0.00 | 0.00 | 0.00 | 68 | 1017.1 |
| 20260903174601 | 90 | 149 | 3.0 | 8.0 | 0.00 | 0.00 | 0.00 | 66 | 1017.2 |
| 20260903174505 | 90 | 147 | 2.0 | 8.0 | 0.00 | 0.00 | 0.00 | 66 | 1017.2 |
| 20260903173100 | 90 | 116 | 4.0 | 8.0 | 0.00 | 0.00 | 0.00 | 68 | 1017.3 |
| 20260903171603 | 91 | 181 | 0.0 | 5.0 | 0.00 | 0.00 | 0.00 | 69 | 1017.3 |
| 20260903170106 | 89 | 300 | 4.0 | 9.0 | 0.00 | 0.00 | 0.00 | 70 | 1017.5 |
| 20260903164553 | 89 | 122 | 3.0 | 10.0 | 0.00 | 0.00 | 0.00 | 70 | 1017.6 |
| 20260903163048 | 90 | 109 | 2.0 | 8.0 | 0.00 | 0.00 | 0.00 | 68 | 1017.6 |
| 20260903161549 | 88 | 118 | 4.0 | 8.0 | 0.00 | 0.00 | 0.00 | 71 | 1017.8 |
| 20260903160048 | 89 | 136 | 3.0 | 10.0 | 0.00 | 0.00 | 0.00 | 71 | 1017.8 |
| 20260903154516 | 89 | 137 | 4.0 | 10.0 | 0.00 | 0.00 | 0.00 | 71 | 1017.9 |
| 20260903153015 | 89 | 135 | 3.0 | 8.0 | 0.00 | 0.00 | 0.00 | 69 | 1017.8 |
| 20260903151552 | 88 | 149 | 4.0 | 7.0 | 0.00 | 0.00 | 0.00 | 71 | 1017.9 |
| 20260903150141 | 89 | 135 | 2.0 | 5.0 | 0.00 | 0.00 | 0.00 | 74 | 1017.9 |
| 20260903144543 | 88 | 136 | 1.0 | 10.0 | 0.00 | 0.00 | 0.00 | 78 | 1017.9 |
| 20260903143042 | 88 | 109 | 1.0 | 7.0 | 0.00 | 0.00 | 0.00 | 79 | 1017.8 |
| 20260903141535 | 88 | 348 | 1.0 | 4.0 | 0.00 | 0.00 | 0.00 | 77 | 1017.8 |
| 20260903140026 | 88 | 89 | 1.0 | 4.0 | 0.00 | 0.00 | 0.00 | 76 | 1017.7 |
| 20260903134517 | 87 | 276 | 0.0 | 4.0 | 0.00 | 0.00 | 0.00 | 77 | 1017.6 |
| 20260903133007 | 87 | 79 | 0.0 | 2.0 | 0.00 | 0.00 | 0.00 | 79 | 1017.7 |
| 20260903131505 | 86 | 100 | 0.0 | 2.0 | 0.00 | 0.00 | 0.00 | 81 | 1017.7 |
| 20260903130058 | 84 | 34 | 0.0 | 3.0 | 0.00 | 0.00 | 0.00 | 84 | 1017.8 |
| 20260903130004 | 84 | 89 | 0.0 | 2.0 | 0.00 | 0.00 | 0.00 | 84 | 1017.7 |
| 20260903124529 | 84 | 318 | 0.0 | 1.0 | 0.00 | 0.00 | 0.00 | 87 | 1017.7 |
| 20260903123027 | 82 | 134 | 0.0 | 1.0 | 0.00 | 0.00 | 0.00 | 88 | 1017.7 |
| 20260903121525 | 81 | 149 | 0.0 | 0.0 | 0.00 | 0.00 | 0.00 | 92 | 1017.7 |
| 20260903120013 | 78 | 149 | 0.0 | 0.0 | 0.00 | 0.00 | 0.00 | 95 | 1017.6 |
| 20260903114513 | 75 | 149 | 0.0 | 0.0 | 0.00 | 0.00 | 0.00 | 95 | 1017.6 |
| 20260903113012 | 74 | 149 | 0.0 | 0.0 | 0.00 | 0.00 | 0.00 | 95 | 1017.5 |
| 20260903111500 | 73 | 149 | 0.0 | 0.0 | 0.00 | 0.00 | 0.00 | 95 | 1017.4 |
| 20260903110002 | 73 | 149 | 0.0 | 0.0 | 0.00 | 0.00 | 0.00 | 95 | 1017.4 |
| 20260903104607 | 73 | 149 | 0.0 | 0.0 | 0.00 | 0.00 | 0.00 | 95 | 1017.2 |
| 20260903103057 | 73 | 149 | 0.0 | 0.0 | 0.00 | 0.00 | 0.00 | 95 | 1017.1 |
| 20260903101542 | 73 | 149 | 0.0 | 0.0 | 0.00 | 0.00 | 0.00 | 95 | 1016.9 |
| 20260903100038 | 73 | 149 | 0.0 | 0.0 | 0.00 | 0.00 | 0.00 | 94 | 1016.9 |
| 20260903094542 | 74 | 149 | 0.0 | 0.0 | 0.00 | 0.00 | 0.00 | 95 | 1016.7 |
| 20260903093050 | 73 | 149 | 0.0 | 0.0 | 0.00 | 0.00 | 0.00 | 95 | 1016.6 |
| 20260903091505 | 74 | 149 | 0.0 | 0.0 | 0.00 | 0.00 | 0.00 | 94 | 1016.5 |
| 20260903090002 | 74 | 149 | 0.0 | 0.0 | 0.00 | 0.00 | 0.00 | 94 | 1016.5 |
| 20260903084532 | 74 | 149 | 0.0 | 0.0 | 0.00 | 0.00 | 0.00 | 94 | 1016.5 |
| 20260903083030 | 74 | 149 | 0.0 | 0.0 | 0.00 | 0.00 | 0.00 | 94 | 1016.4 |
| 20260903081559 | 75 | 149 | 0.0 | 0.0 | 0.00 | 0.00 | 0.00 | 94 | 1016.5 |
| 20260903081503 | 75 | 149 | 0.0 | 0.0 | 0.00 | 0.00 | 0.00 | 94 | 1016.5 |
| 20260903080058 | 75 | 149 | 0.0 | 0.0 | 0.00 | 0.00 | 0.00 | 94 | 1016.4 |
| 20260903074554 | 75 | 149 | 0.0 | 0.0 | 0.00 | 0.00 | 0.00 | 94 | 1016.3 |
| 20260903073059 | 75 | 149 | 0.0 | 0.0 | 0.00 | 0.00 | 0.00 | 94 | 1016.2 |
| 20260903071553 | 75 | 149 | 0.0 | 0.0 | 0.00 | 0.00 | 0.00 | 94 | 1016.2 |
| 20260903070051 | 75 | 149 | 0.0 | 0.0 | 0.00 | 0.00 | 0.00 | 94 | 1016.1 |
| 20260903064543 | 76 | 149 | 0.0 | 0.0 | 0.00 | 0.00 | 0.00 | 94 | 1016.0 |
| 20260903063045 | 76 | 149 | 0.0 | 0.0 | 0.00 | 0.00 | 0.00 | 93 | 1016.0 |
| 20260903061542 | 76 | 149 | 0.0 | 0.0 | 0.00 | 0.00 | 0.00 | 93 | 1015.9 |
| 20260903060039 | 76 | 149 | 0.0 | 0.0 | 0.00 | 0.00 | 0.00 | 93 | 1016.0 |
| 20260903054512 | 77 | 149 | 0.0 | 0.0 | 0.00 | 0.00 | 0.00 | 93 | 1016.2 |
| 20260903053123 | 77 | 149 | 0.0 | 0.0 | 0.00 | 0.00 | 0.00 | 93 | 1016.3 |
| 20260903051557 | 77 | 149 | 0.0 | 0.0 | 0.00 | 0.00 | 0.00 | 92 | 1016.2 |
| 20260903050054 | 77 | 149 | 0.0 | 0.0 | 0.00 | 0.00 | 0.00 | 92 | 1016.6 |
| 20260903044555 | 78 | 149 | 0.0 | 0.0 | 0.00 | 0.00 | 0.00 | 92 | 1016.6 |
| 20260903043054 | 78 | 149 | 0.0 | 0.0 | 0.00 | 0.00 | 0.00 | 91 | 1016.5 |
| 20260903041554 | 78 | 149 | 0.0 | 0.0 | 0.00 | 0.00 | 0.00 | 91 | 1016.6 |
| 20260903040052 | 79 | 149 | 0.0 | 0.0 | 0.00 | 0.00 | 0.00 | 90 | 1016.8 |
| 20260903034550 | 79 | 149 | 0.0 | 0.0 | 0.00 | 0.00 | 0.00 | 90 | 1016.8 |
| 20260903033023 | 79 | 199 | 0.0 | 3.0 | 0.00 | 0.00 | 0.00 | 89 | 1016.5 |
| 20260903031533 | 79 | 145 | 0.0 | 1.0 | 0.00 | 0.00 | 0.00 | 89 | 1016.7 |
| 20260903030049 | 80 | 145 | 0.0 | 1.0 | 0.00 | 0.00 | 0.00 | 90 | 1016.6 |
| 20260903024551 | 79 | 135 | 0.0 | 0.0 | 0.00 | 0.00 | 0.00 | 89 | 1016.6 |
| 20260903023038 | 80 | 148 | 0.0 | 2.0 | 0.00 | 0.00 | 0.00 | 89 | 1016.6 |
| 20260903021541 | 79 | 193 | 0.0 | 2.0 | 0.00 | 0.00 | 0.00 | 89 | 1016.7 |
| 20260903020025 | 79 | 217 | 0.0 | 1.0 | 0.00 | 0.00 | 0.00 | 89 | 1016.7 |
| 20260903014531 | 79 | 146 | 0.0 | 1.0 | 0.00 | 0.00 | 0.00 | 89 | 1016.7 |
| 20260903013022 | 80 | 170 | 0.0 | 4.0 | 0.00 | 0.00 | 0.00 | 88 | 1016.9 |
| 20260903011523 | 80 | 270 | 0.0 | 1.0 | 0.00 | 0.00 | 0.00 | 88 | 1016.8 |
| 20260903010051 | 80 | 142 | 0.0 | 1.0 | 0.00 | 0.00 | 0.00 | 87 | 1016.4 |
| 20260903004551 | 81 | 116 | 0.0 | 1.0 | 0.00 | 0.00 | 0.00 | 87 | 1016.5 |
| 20260903003026 | 81 | 154 | 0.0 | 0.0 | 0.00 | 0.00 | 0.00 | 86 | 1016.5 |
| 20260903001525 | 81 | 146 | 0.0 | 1.0 | 0.00 | 0.00 | 0.00 | 85 | 1016.7 |
| 20260903000017 | 82 | 144 | 0.0 | 1.0 | 0.00 | 0.00 | 0.00 | 84 | 1016.6 |
| 20260902234516 | 82 | 154 | 0.0 | 2.0 | 0.00 | 0.00 | 0.00 | 83 | 1016.7 |
| 20260902233022 | 83 | 148 | 0.0 | 4.0 | 0.00 | 0.00 | 0.00 | 82 | 1016.6 |
| 20260902231515 | 83 | 166 | 0.0 | 7.0 | 0.00 | 0.00 | 0.00 | 81 | 1016.5 |
| 20260902230014 | 84 | 178 | 2.0 | 4.0 | 0.00 | 0.00 | 0.00 | 78 | 1016.3 |
| 20260902224509 | 84 | 214 | 3.0 | 8.0 | 0.00 | 0.00 | 0.00 | 77 | 1016.2 |
| 20260902223009 | 85 | 139 | 2.0 | 10.0 | 0.00 | 0.00 | 0.00 | 76 | 1016.2 |
| 20260902221518 | 86 | 151 | 2.0 | 7.0 | 0.00 | 0.00 | 0.00 | 75 | 1016.3 |
| 20260902220042 | 86 | 149 | 1.0 | 7.0 | 0.00 | 0.00 | 0.00 | 75 | 1016.4 |
| 20260902214544 | 87 | 163 | 3.0 | 9.0 | 0.00 | 0.00 | 0.00 | 73 | 1016.2 |
| 20260902213033 | 88 | 126 | 2.0 | 7.0 | 0.00 | 0.00 | 0.00 | 74 | 1016.3 |